x

South Bermuda - 300 Nm Sse Of Bermuda (41049) Wave Buoy

11:50am - Tue 23rd Sep 2014 All times are UTC.

  • Sig Wave height 4.9ft
  • Swell Direction
  • Peak Period 8s
  • Average Period 6s
  • Wind
    16mph, 18mph gusts
  • Sea Temp 85°f
  • Air Temp 83°f
  • Sea Pressure 1019.1mb

More Historic Weather Station data

Upgrade to MSW Pro to gain access to the past 30 days of data for over 8000 Wavebouys and Weather Stations around the globe.

Join Pro

Comparision Forecast

View Surf forecast
   
Tue 09/23 11:50am 5ft 8s 6s 16 18 mph 1019.1mb 85f 83f
10:50am 5ft 7s 6s 13 18 mph 1019mb 85f 83f
9:50am 5.5ft 8s 6s 13 18 mph 1018.7mb 85f 82f
8:50am 5ft 8s 6s 13 16 mph 1018.6mb 85f 83f
7:50am 5.5ft 8s 6s 13 18 mph 1018.4mb 85f 83f
6:50am 6ft 8s 6s 16 18 mph 1018.2mb 85f 83f
5:50am 5.5ft 8s 6s 13 18 mph 1018.8mb 85f 83f
4:50am 6ft 8s 6s 16 20 mph 1019.2mb 85f 83f
3:50am 5ft 8s 6s 16 18 mph 1019.6mb 85f 83f
2:50am 6ft 8s 6s 16 22 mph 1019.6mb 85f 83f
1:50am 5.5ft 8s 6s 18 20 mph 1019.8mb 85f 83f
12:50am 5ft 8s 6s 16 18 mph 1019.9mb 85f 83f
Mon 09/22 11:50pm 5ft 8s 6s 16 18 mph 1019.6mb 85f 83f
10:50pm 5ft 7s 6s 13 18 mph 1019.3mb 85f 84f
8:50pm 5ft 8s 6s 16 18 mph 1019mb 85f 84f
7:50pm 5ft 8s 6s 13 18 mph 1018.9mb 85f 84f
6:50pm 5ft 8s 6s 13 18 mph 1018.9mb 85f 84f
5:50pm 5ft 8s 6s 13 18 mph 1019.2mb 85f 84f
4:50pm 5ft 8s 6s 16 20 mph 1019.5mb 85f 84f
3:50pm 5ft 8s 6s 16 18 mph 1019.9mb 85f 84f
2:50pm 5ft 8s 6s 13 18 mph 1020.4mb 85f 84f
1:50pm 5ft 8s 6s 16 18 mph 1020.6mb 85f 84f
12:50pm 5ft 7s 6s 13 16 mph 1020.4mb 85f 84f
11:50am 5ft 8s 6s 13 18 mph 1019.9mb 85f 83f
10:50am 5ft 8s 6s 13 18 mph 1019.3mb 85f 83f
9:50am 5.5ft 8s 6s 16 18 mph 1019mb 85f 83f
8:50am 5.5ft 7s 6s 16 18 mph 1018.6mb 85f 83f
7:50am 5.5ft 7s 6s 13 18 mph 1018.6mb 85f 83f
6:50am 5ft 8s 6s 16 18 mph 1019mb 85f 83f
5:50am 5ft 8s 6s 13 18 mph 1019.6mb 85f 83f
4:50am 5ft 8s 6s 16 20 mph 1020.3mb 85f 83f
3:50am 5ft 7s 6s 16 18 mph 1020.8mb 85f 83f
2:50am 5ft 8s 6s 13 16 mph 1021mb 85f 83f
1:50am 4.5ft 7s 6s 13 16 mph 1021.2mb 85f 83f
12:50am 5ft 8s 6s 13 16 mph 1021.2mb 85f 84f
Sun 09/21 11:50pm 4.5ft 8s 6s 13 18 mph 1020.8mb 85f 83f
10:50pm 5ft 8s 6s 13 16 mph 1020.2mb 85f 83f
9:50pm 5ft 6s 6s 13 16 mph 1019.9mb 85f 84f
8:50pm 5ft 8s 6s 13 16 mph 1019.8mb 85f 84f
7:50pm 5ft 7s 6s 13 16 mph 1019.8mb 85f 84f
6:50pm 5.5ft 7s 6s 13 18 mph 1019.6mb 85f 84f
5:50pm 5ft 6s 5s 16 18 mph 1020mb 85f 84f
4:50pm 5.5ft 7s 5s 16 18 mph 1020.4mb 85f 84f
3:50pm 5ft 8s 5s 18 20 mph 1020.9mb 85f 84f
2:50pm 5ft 6s 5s 16 20 mph 1021.3mb 85f 84f
1:50pm 5ft 6s 5s 18 20 mph 1021.1mb 85f 84f
12:50pm 5ft 7s 5s 16 20 mph 1020.9mb 85f 84f
11:50am 5ft 6s 5s 18 20 mph 1020.2mb 85f 84f
10:50am 5ft 7s 5s 18 20 mph 1019.9mb 85f 84f
9:50am 5ft 8s 5s 18 22 mph 1019.6mb 85f 83f
8:50am 5ft 6s 5s 20 22 mph 1019mb 85f 83f
7:50am 5ft 6s 5s 20 22 mph 1018.7mb 85f 83f
6:50am 4.5ft 7s 5s 18 20 mph 1019.1mb 85f 83f
5:50am 4.5ft 7s 5s 18 20 mph 1019.6mb 85f 83f
4:50am 4.5ft 7s 5s 16 20 mph 1020.3mb 85f 83f
3:50am 4.5ft 6s 5s 18 22 mph 1020.4mb 85f 83f
2:50am 4ft 7s 5s 18 20 mph 1020.7mb 85f 84f
1:50am 4ft 9s 5s 13 18 mph 1021.1mb 85f 83f
12:50am 3.5ft 9s 5s 16 18 mph 1020.6mb 85f 84f
Sat 09/20 11:50pm 3.5ft 8s 5s 13 16 mph 1020.1mb 85f 84f
10:50pm 3.5ft 8s 5s 13 16 mph 1019.5mb 85f 84f
9:50pm 3.5ft 7s 5s 13 16 mph 1019.2mb 85f 84f
8:50pm 3.5ft 9s 5s 13
mph
1019.1mb 85f 84f
7:50pm 3.5ft 10s 5s 13 16 mph 1018.9mb 85f 84f
6:50pm 3.5ft 7s 5s 11 16 mph 1018.8mb 85f 84f
5:50pm 3.5ft 7s 5s 13 16 mph 1019.1mb 85f 84f
4:50pm 3.5ft 7s 5s 13 16 mph 1019.6mb 85f 84f
3:50pm 3.5ft 8s 5s 11 16 mph 1020.1mb 85f 84f
2:50pm 3.5ft 7s 5s 13 16 mph 1020.5mb 85f 83f
1:50pm 3.5ft 10s 5s 13 16 mph 1020.3mb 85f 84f
12:50pm 3.5ft 7s 6s 11 13 mph 1020.1mb 85f 84f
11:50am 3.5ft 8s 6s 11 13 mph 1019.6mb 85f 83f
10:50am 4ft 8s 6s 11 13 mph 1019.2mb 85f 83f
9:50am 4ft 8s 6s 11 13 mph 1018.8mb 85f 83f
8:50am 3.5ft 8s 6s 11 13 mph 1018.4mb 85f 83f
7:50am 4ft 8s 6s 9 11 mph 1018.2mb 85f 83f
6:50am 4ft 8s 6s 11 13 mph 1018.3mb 85f 83f
5:50am 4.5ft 7s 6s 11 13 mph 1018.5mb 85f 83f
4:50am 4ft 7s 6s 11 13 mph 1019mb 85f 83f
3:50am 4.5ft 8s 6s 9 11 mph 1019mb 85f 82f
2:50am 4.5ft 8s 6s 7 11 mph 1019mb 85f 82f
1:50am 4.5ft 8s 6s 4 7 mph 1019.1mb 85f 82f
12:50am 4.5ft 7s 6s 7 9 mph 1018.6mb 85f 81f
Fri 09/19 11:50pm 4.5ft 8s 6s  -  2 mph 1018.5mb 85f 80f
10:50pm 4.5ft 8s 7s 13 16 mph 1018.7mb 85f 81f
8:50pm 4.5ft 8s 7s  -  2 mph 1018mb 85f 81f
7:50pm 4.5ft 8s 6s 2 4 mph 1017.4mb 85f 81f
6:50pm 4ft 8s 6s 2 4 mph 1017.9mb 85f 78f
5:50pm 4ft 8s 6s 11 16 mph 1018.5mb 85f 81f
4:50pm 3.5ft 9s 6s 7 9 mph 1018.3mb 85f 82f
3:50pm 4.5ft 8s 6s 11 16 mph 1018.7mb 85f 80f
2:50pm 4ft 8s 5s 16 22 mph 1018.8mb 85f 77f
1:50pm 4ft 8s 6s 7 11 mph 1018.5mb 85f 82f
12:50pm 4ft 8s 5s 11 16 mph 1018mb 85f 84f